Weather History for Gainesville, GA

Change the Weather History Date:

Tuesday, November 13, 2012

  Actual Average Record
Temperature  
Mean Temperature 50 °F 54 °F  
Max Temperature 62 °F 63 °F 81 °F (1931)
Min Temperature 39 °F 44 °F 21 °F (1941)
Degree Days  
Heating Degree Days 14 12  
Month to date heating degree days 129  
Since 1 July heating degree days 287  
Moisture  
Dew Point 37 °F    
Average Humidity 60    
Maximum Humidity 80    
Minimum Humidity 39    
Precipitation  
Precipitation 0.00 in 0.12 in 2.22 in (1935)
Month to date precipitation 1.55  
Year to date precipitation 46.56  
Sea Level Pressure  
Sea Level Pressure 30.27 in    
Wind  
Wind Speed 6 mph (NNW)    
Max Wind Speed 10 mph    
Max Gust Speed -    
Visibility 10 miles    
Events      
T = Trace of Precipitation, MM = Missing Value Source: NWS Daily Summary

Daily Weather History Graph

Daily Weather History Graph

Search for Another Location

Airport:

Trip Planner

Search our weather history database for the weather conditions in past years. The results will help you decide how hot, cold, wet, or windy it might be!

Date:

Astronomy

Nov. 13, 2012 Rise Set
Actual Time 7:06 AM EST 5:32 PM EST
Civil Twilight 6:40 AM EST 5:58 PM EST
Nautical Twilight 6:10 AM EST 6:28 PM EST
Astronomical Twilight 5:40 AM EST 6:58 PM EST
Moon 6:43 AM EST (11/13) 5:25 PM EST (11/13)
Length of Visible Light 11h 18m
Length of Day
10h 25m
Waning Crescent, 0% of the Moon is Illuminated
Nov 13
Waning Crescent
Nov 13
New
Nov 20
First Quarter
Nov 28
Full
Dec 6
Last Quarter

Hourly Weather History & Observations

Time (EST) Temp. Windchill Dew Point Humidity Pressure Visibility Wind Dir Wind Speed Gust Speed Precip Events Conditions
12:53 AM 50.0 °F - 42.1 °F 74% 30.22 in 10.0 mi NW 8.1 mph - N/A   Overcast
1:53 AM 48.9 °F - 41.0 °F 74% 30.21 in 10.0 mi WNW 10.4 mph - N/A   Overcast
2:53 AM 46.9 °F - 39.9 °F 77% 30.21 in 10.0 mi WNW 9.2 mph - N/A   Overcast
3:53 AM 45.0 °F 41.2 °F 39.0 °F 80% 30.22 in 10.0 mi WNW 6.9 mph - N/A   Mostly Cloudy
4:53 AM 43.0 °F 37.7 °F 37.0 °F 80% 30.22 in 10.0 mi WNW 9.2 mph - N/A   Mostly Cloudy
5:53 AM 41.0 °F 35.2 °F 35.1 °F 79% 30.23 in 10.0 mi WNW 9.2 mph - N/A   Clear
6:53 AM 39.0 °F 32.8 °F 32.0 °F 76% 30.25 in 10.0 mi NW 9.2 mph - N/A   Clear
7:53 AM 39.0 °F 33.4 °F 30.9 °F 73% 30.28 in 10.0 mi NW 8.1 mph - N/A   Clear
8:53 AM 43.0 °F 39.5 °F 30.0 °F 60% 30.30 in 10.0 mi NNW 5.8 mph - N/A   Clear
9:53 AM 48.0 °F - 30.9 °F 52% 30.30 in 10.0 mi NW 5.8 mph - N/A   Mostly Cloudy
10:27 AM 51.8 °F - 32.0 °F 47% 30.31 in 10.0 mi North 3.5 mph - N/A   Overcast
10:53 AM 52.0 °F - 34.0 °F 50% 30.30 in 10.0 mi Calm Calm - N/A   Overcast
11:40 AM 55.4 °F - 37.4 °F 51% 30.30 in 10.0 mi Calm Calm - N/A   Scattered Clouds
11:53 AM 57.0 °F - 39.0 °F 51% 30.29 in 10.0 mi Calm Calm - N/A   Partly Cloudy
12:53 PM 59.0 °F - 41.0 °F 51% 30.26 in 10.0 mi Calm Calm - N/A   Clear
1:53 PM 59.0 °F - 39.9 °F 49% 30.24 in 10.0 mi WNW 3.5 mph - N/A   Clear
2:53 PM 61.0 °F - 37.9 °F 42% 30.23 in 10.0 mi NW 4.6 mph - N/A   Clear
3:53 PM 62.1 °F - 37.0 °F 39% 30.23 in 10.0 mi Calm Calm - N/A   Clear
4:53 PM 60.1 °F - 42.1 °F 51% 30.24 in 10.0 mi SE 4.6 mph - N/A   Clear
5:53 PM 55.9 °F - 34.0 °F 44% 30.26 in 10.0 mi Calm Calm - N/A   Clear
6:53 PM 54.0 °F - 43.0 °F 66% 30.28 in 10.0 mi SE 3.5 mph - N/A   Clear
7:53 PM 52.0 °F - 42.1 °F 69% 30.31 in 10.0 mi ESE 3.5 mph - N/A   Clear
8:53 PM 50.0 °F - 39.9 °F 68% 30.32 in 10.0 mi ENE 6.9 mph - N/A   Clear
9:53 PM 48.9 °F - 34.0 °F 56% 30.33 in 10.0 mi East 9.2 mph - N/A   Clear
10:53 PM 48.0 °F - 32.0 °F 54% 30.34 in 10.0 mi ENE 6.9 mph - N/A   Clear
11:53 PM 46.9 °F - 30.0 °F 52% 30.33 in 10.0 mi East 9.2 mph - N/A   Clear